Location: Unspecified
(0.0000°N, 0.0000°E)
Time: 09:08:52
(UTC+00:00)

Explorer 11/Cluster Stage 4 - Pass Details

Date: 17 July 2020
Orbit: 467 x 1259 km, 28.8° (Epoch: 03 August)

Event Time Altitude Azimuth Distance (km) Brightness Sun altitude
Rises 17:34:39 0° 291° (WNW) 4,009 12.9 7.4°
Reaches altitude 10° 17:37:26 10° 288° (WNW) 3,119 12.8 6.7°
Maximum altitude 17:45:17 58° 210° (SSW) 1,436 8.1 4.9°
Drops below altitude 10° 17:53:19 10° 133° (SE) 3,187 9.1 3.0°
Sets 17:56:13 0° 129° (SE) 4,101 9.6 2.3°
